Location: *
(51.1248°S, 108.4023°W)
Time: 09:12:16
(UTC+00:00)

Envisat - Pass Details

Date: 28 September 2021
Orbit: 764 x 766 km, 98.2° (Epoch: 27 October)

Event Time Altitude Azimuth Distance (km) Brightness Sun altitude
Rises 10:52:53 0° 29° (NNE) 3,234 6.3 -18.1°
Reaches altitude 10° 10:55:12 10° 32° (NNE) 2,315 5.5 -17.7°
Maximum altitude 11:00:13 59° 110° (ESE) 895 3.6 -17.0°
Drops below altitude 10° 11:05:18 10° 188° (S) 2,344 5.7 -16.3°
Sets 11:07:39 0° 191° (SSW) 3,278 6.4 -16.0°
